Retour au catalogue

AISSAT 2

ActifSciencePO
NORAD 40075·PAYLOAD·🇳🇴 Norway

Lancé Jul 8, 2014 depuis Baikonur Cosmodrome

Loading…

Prochains Passages (prochaines 24 heures)

TLE

FraisSource: Space-Track

Époque: Sep 13, 2026, 22:20 UTC

1 40075U 14037G   26256.93107850  .00001303  00000-0  12889-3 0  9993
2 40075  98.4151 236.1455 0004231 348.1765  11.9353 14.93849629659991

Suivez AISSAT 2 en temps réel avec AllMySat

Download on the App Store